FW1310 Weather Reports


time (UTC)temp
C
wind
direction
speed
KPH
gust
KPH
rain 1hr
cm
rain 24hr
cm
rain mn
cm
humidity
%
barometer
mb
20260831182004 32 134 3.2 4.8 0.00 0.00 0.00 58 1000.5
20260831181004 32 134 3.2 4.8 0.00 0.00 0.00 58 1000.4
20260831180503 32 134 3.2 4.8 0.00 0.00 0.00 58 1000.5
20260831175004 32 134 3.2 4.8 0.00 0.00 0.00 58 1001.0
20260831174004 32 134 3.2 4.8 0.00 0.00 0.00 58 1000.7
20260831173504 32 134 3.2 4.8 0.00 0.00 0.00 58 1000.8
20260831173004 32 134 3.2 4.8 0.00 0.00 0.00 58 1001.0
20260831172504 32 134 3.2 4.8 0.00 0.00 0.00 58 1001.1
20260831172004 32 134 3.2 4.8 0.00 0.00 0.00 58 1001.1
20260831171504 32 134 3.2 9.7 0.00 0.00 0.00 58 1001.1
20260831171004 32 193 6.4 9.7 0.00 0.00 0.00 57 1001.3
20260831170504 33 106 4.8 8.0 0.00 0.00 0.00 74 1001.2
20260831170004 30 146 3.2 4.8 0.00 0.00 0.00 74 1001.2
20260831165504 30 146 3.2 4.8 0.00 0.00 0.00 74 1001.2
20260831165004 30 146 3.2 4.8 0.00 0.00 0.00 74 1001.2
20260831164504 30 146 3.2 4.8 0.00 0.00 0.00 74 1001.3
20260831164004 30 146 3.2 4.8 0.00 0.00 0.00 74 1001.3
20260831163504 30 146 3.2 4.8 0.00 0.00 0.00 74 1001.5
20260831162504 30 146 3.2 4.8 0.00 0.00 0.00 74 1001.3
20260831162004 30 146 3.2 4.8 0.00 0.00 0.00 74 1001.5
20260831161503 30 146 3.2 4.8 0.00 0.00 0.00 74 1001.3
20260831161003 30 146 3.2 4.8 0.00 0.00 0.00 74 1001.4
20260831160503 30 146 3.2 4.8 0.00 0.00 0.00 74 1001.3
20260831155004 30 146 3.2 4.8 0.00 0.00 0.00 74 1001.3
20260831154503 30 146 3.2 4.8 0.00 0.00 0.00 74 1001.3
20260831154003 30 146 3.2 4.8 0.00 0.00 0.00 74 1001.3
20260831153503 30 146 3.2 4.8 0.00 0.00 0.00 74 1001.3
20260831153003 30 146 3.2 4.8 0.00 0.00 0.00 74 1001.1
20260831152504 30 146 3.2 4.8 0.00 0.00 0.00 74 1001.3
20260831152004 30 146 3.2 4.8 0.00 0.00 0.00 74 1001.3
20260831151504 30 146 3.2 4.8 0.00 0.00 0.00 74 1001.3
20260831151004 30 146 3.2 4.8 0.00 0.00 0.00 74 1001.0
20260831150504 25 275 3.2 4.8 0.00 0.00 0.00 92 1001.1
20260831145003 25 275 3.2 4.8 0.00 0.00 0.00 92 1000.9
20260831144504 25 275 3.2 4.8 0.00 0.00 0.00 92 1000.9
20260831143503 25 275 3.2 4.8 0.00 0.00 0.00 92 1000.8
20260831143004 25 275 3.2 4.8 0.00 0.00 0.00 92 1000.8
20260831142504 25 275 3.2 4.8 0.00 0.00 0.00 92 1000.8
20260831142004 25 275 3.2 4.8 0.00 0.00 0.00 92 1000.7
20260831141503 25 275 3.2 4.8 0.00 0.00 0.00 92 1000.8
20260831141004 25 275 3.2 4.8 0.00 0.00 0.00 92 1000.7
20260831140504 25 275 3.2 4.8 0.00 0.00 0.00 92 1000.6
20260831135503 25 275 3.2 4.8 0.00 0.00 0.00 92 1000.4
20260831135003 25 275 3.2 4.8 0.00 0.00 0.00 92 1000.4
20260831134004 25 275 3.2 4.8 0.00 0.00 0.00 92 1000.4
20260831133504 25 275 3.2 4.8 0.00 0.00 0.00 92 1000.4
20260831133004 25 275 3.2 4.8 0.00 0.00 0.00 92 1000.3
20260831132002 25 275 3.2 4.8 0.00 0.00 0.00 92 1000.3
20260831131502 25 209 3.2 9.7 0.00 0.00 0.00 93 1000.4
20260831131003 25 204 1.6 4.8 0.00 0.00 0.00 94 1000.3
20260831130502 25 154 1.6 3.2 0.00 0.00 0.00 94 1000.1
20260831130003 25 249 3.2 3.2 0.00 0.00 0.00 95 1000.1
20260831125503 24 236 3.2 4.8 0.00 0.00 0.00 95 1000.0
20260831124502 24 271 3.2 4.8 0.00 0.00 0.00 95 999.8
20260831124003 24 141 1.6 4.8 0.00 0.00 0.00 95 1000.0
20260831123503 24 189 3.2 4.8 0.00 0.00 0.00 95 1000.0
20260831123002 24 154 1.6 3.2 0.00 0.00 0.00 95 999.7
20260831122503 24 247 1.6 4.8 0.00 0.00 0.00 95 999.7
20260831122002 24 179 3.2 4.8 0.00 0.00 0.00 95 999.7
20260831121003 24 153 3.2 4.8 0.00 0.00 0.00 94 1000.0
20260831120502 24 199 3.2 4.8 0.00 0.00 0.00 94 1000.0
20260831120003 24 155 3.2 9.7 0.00 0.00 0.00 94 999.7
20260831115502 24 180 4.8 9.7 0.00 0.00 0.00 94 999.7
20260831115003 24 147 3.2 4.8 0.00 0.00 0.00 94 999.6
20260831114503 24 153 3.2 8.0 0.00 0.00 0.00 93 999.7
20260831114002 24 169 3.2 4.8 0.00 0.00 0.00 93 999.7
20260831113503 25 170 3.2 8.0 0.00 0.00 0.00 93 999.7
20260831113002 25 287 3.2 8.0 0.00 0.00 0.00 93 999.6
20260831112503 25 176 3.2 8.0 0.00 0.00 0.00 93 999.6
20260831112002 25 258 4.8 9.7 0.00 0.00 0.00 93 999.7
20260831111503 25 256 3.2 9.7 0.00 0.00 0.00 93 999.6
20260831111003 25 304 3.2 4.8 0.00 0.00 0.00 93 999.6
20260831110502 25 235 4.8 8.0 0.00 0.00 0.00 93 999.4
20260831110003 25 253 4.8 8.0 0.00 0.00 0.00 93 999.4
20260831105503 25 227 4.8 9.7 0.00 0.00 0.00 93 999.5
20260831105003 25 273 3.2 8.0 0.00 0.00 0.00 93 999.4
20260831104503 25 192 4.8 8.0 0.00 0.00 0.00 93 999.5
20260831104002 25 276 3.2 8.0 0.00 0.00 0.00 93 999.5
20260831103503 25 169 3.2 11.3 0.00 0.00 0.00 93 999.6
20260831102502 25 186 3.2 8.0 0.00 0.00 0.00 93 999.6
20260831102002 25 167 3.2 9.7 0.00 0.00 0.00 93 999.5
20260831101003 25 152 4.8 9.7 0.00 0.00 0.00 92 999.5
20260831100503 25 176 8.0 11.3 0.00 0.00 0.00 92 999.6
20260831100002 25 255 4.8 11.3 0.00 0.00 0.00 92 999.4
20260831095502 25 202 4.8 9.7 0.00 0.00 0.00 92 999.5
20260831095003 25 161 3.2 8.0 0.00 0.00 0.00 92 999.6
20260831094503 25 172 4.8 12.9 0.00 0.00 0.00 92 999.5
20260831094002 25 149 4.8 11.3 0.00 0.00 0.00 92 999.5
20260831093503 25 197 4.8 9.7 0.00 0.00 0.00 91 999.4
20260831093002 25 160 4.8 11.3 0.00 0.00 0.00 91 999.4
20260831092503 25 219 6.4 12.9 0.00 0.00 0.00 91 999.3
20260831092003 25 249 4.8 9.7 0.00 0.00 0.00 91 999.5
20260831091502 25 162 4.8 14.5 0.00 0.00 0.00 90 999.4
20260831091003 25 151 4.8 11.3 0.00 0.00 0.00 90 999.3
20260831090502 25 268 4.8 11.3 0.00 0.00 0.00 89 999.3
20260831090003 25 140 3.2 8.0 0.00 0.00 0.00 89 999.5
20260831085502 25 179 4.8 12.9 0.00 0.00 0.00 88 999.4
20260831085003 25 153 8.0 12.9 0.00 0.00 0.00 87 999.4
20260831084502 25 174 3.2 8.0 0.00 0.00 0.00 87 999.6
20260831084003 25 174 4.8 11.3 0.00 0.00 0.00 86 999.5
20260831083502 25 185 6.4 11.3 0.00 0.00 0.00 86 999.5
20260831082503 25 169 4.8 11.3 0.00 0.00 0.00 84 999.4
20260831082002 25 203 4.8 9.7 0.00 0.00 0.00 84 999.4
20260831081503 25 154 4.8 9.7 0.00 0.00 0.00 83 999.5
20260831081003 26 175 3.2 12.9 0.00 0.00 0.00 82 999.4
20260831080002 26 223 4.8 8.0 0.00 0.00 0.00 82 999.4
20260831075502 26 181 4.8 8.0 0.00 0.00 0.00 82 999.3
20260831075002 26 257 6.4 11.3 0.00 0.00 0.00 82 999.4
20260831074502 26 185 4.8 8.0 0.00 0.00 0.00 82 999.1
20260831074003 26 201 4.8 8.0 0.00 0.00 0.00 82 999.2
20260831073502 26 167 3.2 11.3 0.00 0.00 0.00 82 999.3
20260831073003 26 154 3.2 9.7 0.00 0.00 0.00 82 999.4
20260831072503 26 179 4.8 9.7 0.00 0.00 0.00 81 999.4
20260831072002 26 199 4.8 9.7 0.00 0.00 0.00 81 999.6
20260831071502 26 142 3.2 11.3 0.00 0.00 0.00 80 999.5
20260831071003 26 167 4.8 9.7 0.00 0.00 0.00 80 999.5
20260831070503 26 169 3.2 4.8 0.00 0.00 0.00 80 999.3
20260831070003 27 133 4.8 8.0 0.00 0.00 0.00 79 999.6
20260831065502 27 152 3.2 8.0 0.00 0.00 0.00 79 999.4
20260831065003 27 194 4.8 11.3 0.00 0.00 0.00 78 999.4
20260831064503 27 142 3.2 4.8 0.00 0.00 0.00 78 999.6
20260831064002 27 160 4.8 8.0 0.00 0.00 0.00 78 999.6
20260831063502 27 188 4.8 8.0 0.00 0.00 0.00 77 999.7
20260831063003 27 151 6.4 11.3 0.00 0.00 0.00 77 999.7
20260831062002 27 165 6.4 9.7 0.00 0.00 0.00 76 999.5
20260831061502 27 156 4.8 9.7 0.00 0.00 0.00 76 999.6
20260831061003 27 193 4.8 9.7 0.00 0.00 0.00 75 999.5
20260831060503 27 204 4.8 9.7 0.00 0.00 0.00 75 999.5
20260831060002 28 164 4.8 9.7 0.00 0.00 0.00 74 999.6
20260831055503 28 196 8.0 12.9 0.00 0.00 0.00 73 999.6
20260831055003 28 180 6.4 11.3 0.00 0.00 0.00 73 999.5
20260831054503 28 162 4.8 11.3 0.00 0.00 0.00 72 999.6
20260831053503 28 175 6.4 12.9 0.00 0.00 0.00 70 999.5
20260831053003 28 225 4.8 8.0 0.00 0.00 0.00 70 999.5
20260831052503 28 154 4.8 8.0 0.00 0.00 0.00 69 999.2
20260831051003 28 197 4.8 9.7 0.00 0.00 0.00 68 999.3
20260831050502 28 171 4.8 11.3 0.00 0.00 0.00 68 999.2
20260831050002 28 156 4.8 11.3 0.00 0.00 0.00 67 999.4
20260831045503 29 235 4.8 9.7 0.00 0.00 0.00 67 999.3
20260831045003 29 204 6.4 12.9 0.00 0.00 0.00 66 999.0
20260831044502 29 208 4.8 14.5 0.00 0.00 0.00 66 999.1
20260831043503 29 171 8.0 12.9 0.00 0.00 0.00 65 999.0
20260831043002 29 166 9.7 16.1 0.00 0.00 0.00 65 999.1
20260831042503 29 182 8.0 12.9 0.00 0.00 0.00 65 999.1
20260831042008 29 180 9.7 14.5 0.00 0.00 0.00 65 999.1
20260831041003 30 193 8.0 12.9 0.00 0.00 0.00 65 999.0
20260831040503 30 166 8.0 14.5 0.00 0.00 0.00 65 999.1
20260831040002 30 182 8.0 16.1 0.00 0.00 0.00 65 999.0
20260831035503 30 145 8.0 16.1 0.00 0.00 0.00 65 998.9
20260831035003 30 201 8.0 14.5 0.00 0.00 0.00 64 998.9
20260831034502 30 179 11.3 16.1 0.00 0.00 0.00 64 998.8
20260831033002 30 164 9.7 19.3 0.00 0.00 0.00 64 998.8
20260831032503 30 150 4.8 11.3 0.00 0.00 0.00 65 998.5
20260831032003 30 176 8.0 14.5 0.00 0.00 0.00 65 998.4
20260831031502 30 150 6.4 11.3 0.00 0.00 0.00 65 998.5
20260831031003 30 174 4.8 11.3 0.00 0.00 0.00 65 998.7
20260831030002 30 177 8.0 12.9 0.00 0.00 0.00 64 998.3
20260831025502 30 173 8.0 14.5 0.00 0.00 0.00 63 998.1
20260831025003 30 201 6.4 16.1 0.00 0.00 0.00 63 998.2
20260831024502 31 210 4.8 20.9 0.00 0.00 0.00 62 998.1
20260831024002 31 127 4.8 12.9 0.00 0.00 0.00 59 997.9
20260831023503 31 192 8.0 12.9 0.00 0.00 0.00 56 998.0
20260831023003 31 178 6.4 11.3 0.00 0.00 0.00 55 997.9
20260831022503 31 121 8.0 19.3 0.00 0.00 0.00 53 997.9
20260831022003 31 136 1.6 4.8 0.00 0.00 0.00 53 997.6
20260831021502 31 147 1.6 3.2 0.00 0.00 0.00 53 997.6
20260831021003 31 149 3.2 3.2 0.00 0.00 0.00 52 997.4
20260831020502 31 138 1.6 3.2 0.00 0.00 0.00 53 997.3
20260831020003 31 153 1.6 4.8 0.00 0.00 0.00 52 997.4
20260831015503 31 163 1.6 3.2 0.00 0.00 0.00 52 997.2
20260831015003 31 135 1.6 8.0 0.00 0.00 0.00 52 997.3
20260831014503 31 144 3.2 8.0 0.00 0.00 0.00 51 997.3
20260831014003 31 130 1.6 3.2 0.00 0.00 0.00 51 997.3
20260831013503 32 111 0.0 1.6 0.00 0.00 0.00 50 997.0
20260831013003 32 140 1.6 3.2 0.00 0.00 0.00 50 996.9
20260831012503 32 133 1.6 3.2 0.00 0.00 0.00 50 997.0
20260831011503 32 108 1.6 3.2 0.00 0.00 0.00 49 996.9
20260831010003 32 143 1.6 4.8 0.00 0.00 0.00 48 997.1
20260831005503 33 154 3.2 4.8 0.00 0.00 0.00 48 996.9
20260831005003 33 104 1.6 8.0 0.00 0.00 0.00 48 996.9
20260831004503 33 141 1.6 4.8 0.00 0.00 0.00 47 996.9
20260831003503 33 148 3.2 4.8 0.00 0.00 0.00 47 996.9
20260831003003 33 147 4.8 9.7 0.00 0.00 0.00 46 996.7
20260831002503 33 179 4.8 9.7 0.00 0.00 0.00 46 996.9
20260831002003 33 122 3.2 9.7 0.00 0.00 0.00 46 996.8
20260831001503 33 175 4.8 9.7 0.00 0.00 0.00 46 997.0
20260831001003 34 35 3.2 4.8 0.00 0.00 0.00 46 997.0
20260831000003 34 146 4.8 12.9 0.00 0.00 0.00 45 997.0
20260830235003 35 172 4.8 9.7 0.00 0.00 0.00 45 996.8
20260830234503 35 172 6.4 11.3 0.00 0.00 0.00 44 996.9
20260830233503 36 180 3.2 9.7 0.00 0.00 0.00 42 997.0
20260830233003 35 109 3.2 9.7 0.00 0.00 0.00 42 996.8
20260830231504 36 206 4.8 9.7 0.00 0.00 0.00 41 996.9
20260830231003 35 176 4.8 11.3 0.00 0.00 0.00 40 996.9
20260830230004 36 177 4.8 8.0 0.00 0.00 0.00 40 996.9
20260830225503 35 182 4.8 9.7 0.00 0.00 0.00 40 997.2
20260830225003 35 216 6.4 9.7 0.00 0.00 0.00 42 997.0
20260830224003 36 134 4.8 11.3 0.00 0.00 0.00 40 997.0
20260830223503 36 190 8.0 19.3 0.00 0.00 0.00 41 997.1
20260830223003 36 163 6.4 11.3 0.00 0.00 0.00 42 997.1
20260830222503 36 184 4.8 9.7 0.00 0.00 0.00 42 997.0
20260830221503 36 186 3.2 8.0 0.00 0.00 0.00 41 997.2
20260830221002 36 172 4.8 9.7 0.00 0.00 0.00 41 997.2
20260830220503 36 150 4.8 12.9 0.00 0.00 0.00 41 997.3
20260830220003 36 167 3.2 8.0 0.00 0.00 0.00 42 997.3
20260830214003 36 181 6.4 12.9 0.00 0.00 0.00 43 997.5
20260830213502 36 278 4.8 12.9 0.00 0.00 0.00 42 997.6
20260830213034 36 173 8.0 12.9 0.00 0.00 0.00 43 997.5
20260830212503 36 191 4.8 8.0 0.00 0.00 0.00 44 997.6
20260830212002 35 162 6.4 12.9 0.00 0.00 0.00 45 997.9
20260830211536 36 175 8.0 12.9 0.00 0.00 0.00 44 997.9
20260830211003 36 170 6.4 12.9 0.00 0.00 0.00 44 998.2
20260830210503 35 149 4.8 14.5 0.00 0.00 0.00 46 998.0
20260830210035 36 195 8.0 14.5 0.00 0.00 0.00 44 998.0
20260830205502 35 162 3.2 8.0 0.00 0.00 0.00 46 998.2
20260830205003 35 157 4.8 12.9 0.00 0.00 0.00 46 998.4
20260830204512 36 222 8.0 12.9 0.00 0.00 0.00 44 998.4
20260830204003 35 79 6.4 11.3 0.00 0.00 0.00 45 998.4
20260830203503 35 163 6.4 11.3 0.00 0.00 0.00 47 998.6
20260830203002 35 175 8.0 14.5 0.00 0.00 0.00 47 998.6
20260830202502 35 189 4.8 20.9 0.00 0.00 0.00 45 998.6
20260830202002 36 195 3.2 12.9 0.00 0.00 0.00 43 998.5
20260830201504 35 176 6.4 14.5 0.00 0.00 0.00 46 998.6
20260830201003 36 209 4.8 11.3 0.00 0.00 0.00 46 998.7
20260830200003 36 194 8.0 14.5 0.00 0.00 0.00 47 998.9
20260830195502 35 180 1.6 9.7 0.00 0.00 0.00 46 998.8
20260830195002 35 94 4.8 12.9 0.00 0.00 0.00 49 999.0
20260830194502 36 184 8.0 19.3 0.00 0.00 0.00 45 999.1
20260830194002 35 171 3.2 11.3 0.00 0.00 0.00 48 999.2
20260830193002 35 192 4.8 11.3 0.00 0.00 0.00 47 999.3
20260830192503 35 195 4.8 11.3 0.00 0.00 0.00 47 999.2
20260830192002 35 184 4.8 11.3 0.00 0.00 0.00 48 999.2
20260830191003 34 181 11.3 20.9 0.00 0.00 0.00 49 999.5
20260830190502 34 165 6.4 11.3 0.00 0.00 0.00 52 999.5
20260830185502 34 217 8.0 11.3 0.00 0.00 0.00 52 999.8
20260830185002 34 170 4.8 12.9 0.00 0.00 0.00 51 999.8
20260830184502 34 196 4.8 8.0 0.00 0.00 0.00 50 999.9
20260830184003 34 140 3.2 14.5 0.00 0.00 0.00 53 1000.0
20260830183502 34 170 8.0 12.9 0.00 0.00 0.00 53 1000.0
20260830183003 34 193 9.7 16.1 0.00 0.00 0.00 54 1000.1
20260830182503 33 155 3.2 11.3 0.00 0.00 0.00 54 1000.3